TimeEST,TemperatureF,Dew PointF,Humidity,Sea Level PressureIn,VisibilityMPH,Wind Direction,Wind SpeedMPH,Gust SpeedMPH,PrecipitationIn,Events,Conditions,WindDirDegrees,DateUTC
12:53 AM,66.0,60.1,81,29.93,10.0,South,5.8,-,N/A,,Clear,170,2012-12-26 05:53:00
1:53 AM,60.1,57.0,90,29.94,10.0,Calm,Calm,-,N/A,,Clear,0,2012-12-26 06:53:00
2:53 AM,64.0,59.0,84,29.92,10.0,South,6.9,-,N/A,,Clear,170,2012-12-26 07:53:00
3:53 AM,66.0,62.1,87,29.92,10.0,South,6.9,-,N/A,,Clear,190,2012-12-26 08:53:00
4:53 AM,64.9,61.0,87,29.92,10.0,South,8.1,-,N/A,,Clear,180,2012-12-26 09:53:00
5:53 AM,66.9,63.0,87,29.92,10.0,South,9.2,-,N/A,,Mostly Cloudy,180,2012-12-26 10:53:00
6:53 AM,68.0,64.0,87,29.91,10.0,South,11.5,-,N/A,,Partly Cloudy,170,2012-12-26 11:53:00
7:53 AM,70.0,66.0,87,29.91,10.0,South,10.4,-,N/A,,Mostly Cloudy,180,2012-12-26 12:53:00
8:53 AM,71.1,66.0,84,29.92,10.0,South,12.7,-,N/A,,Partly Cloudy,190,2012-12-26 13:53:00
9:53 AM,77.0,68.0,74,29.92,10.0,SSW,16.1,23.0,N/A,,Scattered Clouds,200,2012-12-26 14:53:00
10:40 AM,78.8,68.0,69,29.90,10.0,South,15.0,26.5,N/A,,Mostly Cloudy,190,2012-12-26 15:40:00
10:53 AM,80.1,68.0,67,29.89,10.0,SSW,13.8,25.3,N/A,,Mostly Cloudy,200,2012-12-26 15:53:00
11:53 AM,80.1,66.0,62,29.86,10.0,SSW,17.3,28.8,N/A,,Mostly Cloudy,210,2012-12-26 16:53:00
12:00 PM,80.6,66.2,61,29.85,10.0,SSW,17.3,35.7,N/A,,Mostly Cloudy,210,2012-12-26 17:00:00
12:53 PM,81.0,66.0,60,29.83,10.0,SSW,23.0,33.4,N/A,,Mostly Cloudy,210,2012-12-26 17:53:00
1:53 PM,81.0,66.0,60,29.79,10.0,SSW,19.6,32.2,N/A,,Mostly Cloudy,210,2012-12-26 18:53:00
2:53 PM,82.9,64.0,53,29.79,10.0,WSW,20.7,33.4,N/A,,Mostly Cloudy,240,2012-12-26 19:53:00
3:53 PM,71.1,62.1,73,29.83,2.5,West,21.9,34.5,0.00,Rain,Rain,270,2012-12-26 20:53:00
4:08 PM,69.8,62.6,78,29.83,10.0,West,13.8,-,0.06,Rain,Light Rain,280,2012-12-26 21:08:00
4:53 PM,69.1,62.1,78,29.84,10.0,West,13.8,-,0.06,,Overcast,270,2012-12-26 21:53:00
5:53 PM,69.1,63.0,81,29.86,10.0,West,12.7,-,N/A,,Mostly Cloudy,270,2012-12-26 22:53:00
6:53 PM,66.9,60.1,79,29.88,10.0,West,13.8,-,N/A,,Clear,270,2012-12-26 23:53:00
7:53 PM,64.9,57.9,78,29.92,10.0,West,11.5,-,N/A,,Clear,270,2012-12-27 00:53:00
8:53 PM,63.0,55.9,78,29.94,10.0,West,11.5,-,N/A,,Mostly Cloudy,280,2012-12-27 01:53:00
9:53 PM,60.1,54.0,80,29.97,10.0,West,11.5,-,N/A,,Clear,280,2012-12-27 02:53:00
10:53 PM,57.0,52.0,83,29.99,10.0,West,9.2,-,N/A,,Clear,270,2012-12-27 03:53:00
11:53 PM,55.9,51.1,84,29.99,10.0,West,10.4,-,N/A,,Clear,260,2012-12-27 04:53:00